Miscellaneous Local Product
Issued by NWS North Platte, NE

Home | Current Version | Previous Version | Text Only | Print | Product List | Glossary On
Versions: 1 2 3 4 5 6 7 8 9 10 11 12 13 14 15 16 17 18 19 20 21 22 23 24 25 26 27 28 29 30 31 32 33 34 35 36 37 38 39 40 41 42 43 44 45 46 47 48 49 50
000
AXUS43 KLBF 251110
MISLBF


WESTERN AND NORTH CENTRAL NEBRASKA HOURLY WEATHER ROUNDUP
NATIONAL WEATHER SERVICE NORTH PLATTE NE
600 AM CDT SAT OCT 25 2014

***STATIONS NOT REPORTING VARIABLES SUCH AS SKY/WEATHER OR
PRESSURE ARE PROVIDED BY THE NEBRASKA DEPARTMENT OF
ROADS...RAWS...AND APRS NETWORKS...AND ARE NOT UNDER
NATIONAL WEATHER SERVICE QUALITY CONTROL***

...OBSERVATIONS IN AND NEAR THE EASTERN PANHANDLE OF NEBRASKA...

CITY           SKY/WX    TMP DP  RH WIND       PRES   REMARKS
PINE RIDGE     CLEAR     29  27  92 E3        30.16S
CHADRON        CLEAR     31  29  92 W5        30.17S WCI  26
ALLIANCE       CLEAR     37  33  85 N7        30.15S WCI  32
SIDNEY         CLEAR     40  30  67 NW9       30.14F WCI  34
WHITECLAY        N/A     30  28  92 SE3         N/A
RUSHVILLE        N/A     38  31  76 NE8         N/A  WCI  33
CRESCENT LAKE    N/A     38  33  83 N7          N/A  WCI  33
LISCO            N/A     38  30  75 W6          N/A  WCI  33
BIG SPRINGS      N/A     42  36  78 CALM        N/A
LEWELLEN         N/A     39  35  87 NW3         N/A
$$

...OBSERVATIONS IN NORTH CENTRAL NEBRASKA...

CITY           SKY/WX    TMP DP  RH WIND       PRES   REMARKS
VALENTINE      CLEAR     45  33  63 N3        30.13S
THEDFORD       CLEAR     39  34  84 W3        30.12R
AINSWORTH      CLEAR     42  34  73 E3        30.13R
O`NEILL        CLEAR     49  39  68 N8        30.13R
ORD            CLEAR     41  38  89 NW6       30.09S
BROKEN BOW     CLEAR     47  41  80 N9        30.09R
BROWNLEE         N/A     48  35  60 N13         N/A
SPRINGVIEW       N/A     39  35  84 CALM        N/A
BREWSTER         N/A     39  36  90 CALM        N/A
ROSE             N/A     51  39  63 NE8         N/A
NEWPORT          N/A     44  36  71 E3          N/A
SARGENT          N/A     39  38  95 CALM        N/A
COMSTOCK         N/A     46  41  85 CALM        N/A
CHAMBERS         N/A     45  36  70 CALM        N/A
EWING            N/A     50  42  72 CALM        N/A
$$

...OBSERVATIONS IN SOUTHWEST NEBRASKA AND FAR NORTHEAST COLORADO...

CITY           SKY/WX    TMP DP  RH WIND       PRES   REMARKS
WRAY           FAIR      43  32  65 SW5       30.12S
HOLYOKE        FAIR      43  32  65 NW5       30.11S
IMPERIAL       CLEAR     43  33  68 NW5       30.10R
OGALLALA       CLEAR     39  35  86 W3        30.10S
NORTH PLATTE   CLEAR     35  32  88 NW3       30.09R
MCCOOK         CLEAR     40  35  83 SW6       30.08R
LEXINGTON      CLEAR     39  37  91 NW5       30.08R
PAXTON           N/A     39  33  80 CALM        N/A
SUTHERLAND       N/A     39  33  78 W6          N/A  WCI  35
BRADY            N/A     38  34  85 CALM        N/A
GOTHENBURG       N/A     44  37  77 CALM        N/A
CALLAWAY         N/A     46  41  82 E3          N/A
$$

...SOME WEATHER OBSERVATIONS FROM AROUND THE REGION...

CITY           SKY/WX    TMP DP  RH WIND       PRES   REMARKS
DENVER         CLEAR     53  22  29 SW7       30.21S
LARAMIE        PTCLDY    38  19  46 S6        30.31S WCI  33
CHEYENNE       PTCLDY    43  23  45 W9        30.25S
SCOTTSBLUFF    CLEAR     45  32  60 N8        30.16R
RAPID CITY     CLEAR     37  30  75 NW6       30.15S WCI  32
PIERRE         CLEAR     43  34  70 NW6       30.11S
WINNER         FAIR      47  35  63 W3        30.13R
SIOUX FALLS    PTCLDY    47  39  74 NW5       30.08R
OMAHA          CLEAR     50  47  89 N9        30.05R
GRAND ISLAND   CLEAR     42  39  89 CALM      30.08R
KANSAS CITY    FOG       55  53  93 CALM      30.03R VSB 1/4
WICHITA        FOG       55  53  93 CALM      30.03S VSB 1/4
HAYS           CLEAR     48  43  81 W5        30.05S
LIBERAL        CLEAR     48  37  66 W7        30.10F
GOODLAND       CLEAR     45  34  65 W6        30.12S
$$



USA.gov is the U.S. government's official web portal to all federal, state and local government web resources and services.